Location: *
(37.5724°S, 58.0067°E)
Time: 06:07:13
(UTC+00:00)

Genesis I - Pass Details

Date: 19 January 2021
Orbit: 489 x 532 km, 64.5° (Epoch: 02 March)

Event Time Altitude Azimuth Distance (km) Brightness Sun altitude
Exits shadow 23:04:20 34° 249° (WSW) 886 4.1 -20.4°
Maximum altitude 23:04:45 35° 234° (SW) 867 4.2 -20.4°
Drops below altitude 10° 23:08:27 10° 166° (SSE) 1,778 6.8 -19.9°
Sets 23:10:46 0° 157° (SSE) 2,666 8.1 -19.6°
